Wind_Speed
4 4 4 3 2 2 1 1 2 3 5 5 7 7 8 8 9 10 10 10 10 10 11 12 12 11 10 10 10 9 8 8 8 8 8 6 6 6 5 5 4 4 4 4
4 3 4 4 3 2 2 2 4 3 4 5 6 7 8 8 9 9 9 9 10 10 10 11 12 11 11 10 10 9 8 8 8 9 9 8 7 5 5 4 4 4 4 4
4 4 4 6 5 3 2 3 3 3 3 4 6 7 8 9 9 10 10 10 10 10 11 11 12 11 11 10 10 9 9 9 8 9 9 9 8 6 5 5 5 4 4 4
7 7 7 7 7 4 3 3 1 2 2 3 5 7 8 8 9 9 10 10 10 10 10 11 11 11 10 10 10 9 10 10 9 8 8 9 8 7 6 6 6 5 5 5
8 9 9 9 7 6 5 3 2 2 3 3 5 7 7 7 9 9 9 10 10 10 10 11 11 11 11 11 10 9 10 10 10 9 9 9 9 8 8 7 7 7 6 6
8 10 10 9 8 8 5 3 4 5 4 4 6 8 8 7 8 9 9 9 10 10 10 11 12 12 12 11 11 10 10 10 11 11 10 9 9 9 8 8 7 7 7 7
10 12 10 10 9 9 7 4 3 6 5 5 6 8 10 9 9 9 9 9 10 10 11 12 12 11 12 11 12 11 10 10 11 11 11 10 10 10 9 9 8 8 8 8
11 14 13 13 11 11 7 5 5 6 6 7 7 10 10 11 11 9 10 10 11 11 11 11 12 11 12 12 12 11 11 11 11 11 11 11 10 10 10 9 9 9 9 8
13 13 13 14 13 12 10 8 7 7 8 10 9 9 10 11 11 11 11 11 11 11 11 11 12 12 12 12 12 12 12 11 12 11 11 12 11 11 10 10 10 10 10 10
16 16 15 14 13 12 11 10 9 9 10 9 10 11 10 12 14 14 14 13 12 12 12 12 12 13 13 13 14 13 13 13 13 13 13 13 12 11 11 11 11 11 11 11
17 18 16 16 16 15 15 12 11 12 11 9 11 14 13 11 14 16 16 15 13 13 13 13 13 14 14 15 15 14 14 14 13 13 13 13 13 12 11 11 11 11 11 11
19 17 18 17 16 17 16 15 14 13 13 12 13 16 14 13 16 16 16 15 15 15 15 15 15 15 15 15 15 16 16 15 14 14 14 13 13 13 13 13 12 12 12 12
21 20 19 17 16 18 18 17 15 15 14 14 15 18 18 17 17 17 16 16 17 17 17 17 17 17 17 17 17 17 17 17 15 14 14 14 15 15 15 14 13 13 13 12
23 23 22 20 18 18 18 17 16 16 17 17 17 19 21 21 19 17 18 18 17 18 19 20 19 19 19 19 19 18 18 19 18 17 16 16 16 16 16 16 15 14 14 14
25 24 24 22 21 20 20 20 18 19 20 21 20 20 21 21 19 20 20 19 19 20 21 22 22 21 20 21 21 20 21 20 20 20 18 18 17 17 17 17 17 16 16 16
26 26 25 24 22 22 22 22 21 22 23 23 23 24 24 25 23 24 23 22 21 22 23 23 23 23 23 23 23 22 22 22 22 21 20 20 19 19 18 18 18 18 18 18
27 27 26 24 24 25 26 24 23 24 25 24 24 26 26 27 26 26 25 25 25 24 25 25 25 25 25 25 24 24 24 24 23 23 22 22 21 20 20 20 20 20 20 20
28 28 27 26 25 28 26 26 26 27 26 26 27 29 28 29 28 28 27 27 26 27 27 27 27 26 26 26 25 25 25 25 25 24 23 23 22 22 21 21 21 21 21 21
27 28 28 27 27 27 26 26 26 26 28 27 29 29 29 30 31 31 29 28 28 28 28 28 28 27 27 26 26 26 26 26 27 26 25 24 24 24 23 22 22 22 22 22
28 29 29 29 27 27 28 28 27 27 30 30 31 31 31 29 30 31 31 30 28 28 29 29 29 29 28 28 28 28 28 28 27 27 27 26 25 25 25 23 23 23 23 24
28 29 29 29 28 28 29 29 27 29 32 31 32 32 31 29 30 32 33 32 31 30 30 31 31 31 31 30 30 30 30 30 29 28 27 27 27 26 26 25 24 24 24 25
29 29 29 29 29 30 31 30 30 31 33 33 33 33 32 31 32 33 33 33 32 32 31 32 32 32 32 33 32 32 31 30 30 30 29 29 29 28 27 27 26 26 26 26
29 30 30 31 31 30 31 33 33 33 34 34 34 34 35 34 35 35 35 34 34 33 32 33 33 33 33 33 33 33 33 32 31 31 31 31 31 30 29 29 28 27 27 27
32 32 33 33 33 33 34 34 34 35 35 35 35 36 36 37 36 36 35 35 35 35 34 34 34 34 34 34 34 34 34 35 34 33 32 32 32 31 30 29 29 29 28 28
32 33 34 34 33 35 37 35 36 36 37 38 37 37 37 38 37 37 37 37 36 36 36 36 35 35 35 35 36 36 35 35 35 34 33 32 32 31 31 29 29 29 30 30
32 33 34 36 34 35 37 36 36 37 38 38 38 38 38 38 37 37 38 37 37 37 37 37 36 37 37 37 36 36 35 34 34 33 33 32 32 32 31 30 30 30 30 31
Wind_Direction
123 126 126 143 142 119 125 272 324 20 16 15 17 11 8 12 14 9 10 11 12 15 17 18 17 21 24 23 21 20 21 24 25 19 11 5 1 2 2 7 4 10 4 354
153 157 165 189 186 192 181 289 316 3 16 10 359 352 349 351 360 359 3 3 5 11 14 16 16 17 20 23 21 21 20 20 20 17 12 7 7 6 10 14 14 13 9 356
181 205 203 211 222 221 220 257 287 339 352 0 349 346 342 339 345 350 357 2 6 9 12 13 14 17 18 20 21 21 19 17 15 13 11 12 11 10 9 9 4 356 348 341
217 222 219 209 221 228 246 262 271 340 335 334 319 324 335 340 332 340 351 357 2 5 9 9 11 12 12 13 14 16 15 13 10 4 6 7 4 7 5 2 355 344 332 328
222 227 225 216 220 217 230 262 262 276 274 289 309 319 328 323 316 330 345 351 355 359 1 3 5 5 4 4 6 8 7 8 10 5 1 360 359 355 354 354 350 341 333 325
233 241 230 216 219 223 218 227 269 274 286 285 306 310 306 307 316 327 333 343 349 349 350 352 356 357 356 355 358 0 0 1 4 4 357 355 353 349 345 342 339 335 330 324
234 247 240 222 220 231 230 219 267 302 297 301 309 287 295 307 319 326 323 331 343 346 347 346 349 353 352 349 349 350 350 353 355 357 354 350 349 348 343 338 334 331 326 319
231 240 240 238 236 236 230 213 250 284 291 287 274 278 292 302 312 317 321 326 332 337 339 340 342 344 344 343 342 343 340 341 345 349 349 345 341 340 338 334 330 329 328 323
226 234 247 249 245 237 228 232 239 262 275 269 263 273 283 292 305 312 310 313 323 330 334 335 334 336 337 337 337 335 334 336 338 339 339 338 335 334 332 329 326 325 322 322
224 232 234 248 248 241 241 240 239 252 265 272 280 276 270 286 293 299 302 304 309 321 327 328 330 329 329 330 331 330 329 330 331 334 334 333 330 328 327 326 320 318 318 318
224 232 237 242 247 245 244 242 241 249 252 260 279 284 281 277 285 291 296 296 299 307 315 320 324 325 324 325 327 327 323 324 325 327 329 327 324 321 321 322 320 318 318 316
230 232 238 243 246 246 249 247 244 252 256 260 273 281 278 282 281 283 286 291 294 296 302 309 314 317 318 320 321 321 322 318 318 320 321 320 320 320 319 317 316 316 315 318
233 232 237 239 244 248 248 246 244 250 254 259 266 271 274 278 278 275 279 285 289 292 296 301 305 309 311 311 313 315 316 313 313 315 315 314 313 316 315 312 309 310 311 312
235 235 234 236 236 246 257 252 245 248 253 255 257 266 274 275 277 275 277 281 283 287 292 297 300 303 305 307 308 308 309 309 309 309 308 307 306 306 308 307 304 304 305 306
237 237 238 239 237 237 245 250 252 249 251 256 258 261 269 268 271 273 275 280 282 284 288 292 295 297 299 301 303 302 303 304 303 305 303 301 300 300 301 302 300 300 300 301
240 239 239 238 239 242 242 245 249 252 253 256 259 261 264 268 272 274 275 277 279 282 286 289 293 295 296 296 296 297 298 297 298 299 301 298 297 296 297 299 297 296 297 298
243 243 242 241 242 246 247 248 249 252 254 256 258 262 264 264 266 270 274 277 280 282 283 285 288 291 293 294 293 293 293 292 293 295 295 297 294 291 293 296 296 294 294 294
246 247 247 244 243 246 250 252 252 254 257 258 256 258 262 267 269 269 271 274 277 279 282 284 285 288 289 290 291 290 290 290 291 292 292 292 293 289 288 290 291 290 289 289
247 248 247 247 249 250 252 254 254 256 256 258 261 261 262 264 267 270 272 273 275 277 279 281 283 285 287 288 289 289 288 287 287 287 288 288 288 288 287 286 287 287 287 286
247 249 249 248 249 248 251 254 254 258 260 262 264 265 266 267 268 271 272 273 274 276 278 280 282 284 285 285 286 286 287 286 286 285 284 284 284 284 284 284 284 284 284 284
247 248 248 248 249 252 254 253 254 256 260 263 266 268 270 270 269 271 271 274 275 276 277 279 281 283 284 284 283 284 285 285 283 284 283 282 281 282 281 281 283 284 284 284
248 248 248 247 246 250 254 255 255 258 261 264 266 267 268 269 270 270 272 275 275 275 277 279 280 281 281 282 282 282 283 283 283 282 282 282 282 282 279 278 279 281 283 284
247 248 249 249 249 253 255 256 258 259 261 263 265 266 267 269 270 270 271 273 274 275 277 278 279 279 279 279 280 281 281 281 281 281 282 282 283 281 279 278 276 277 279 281
248 249 248 250 250 253 256 258 260 260 261 263 264 265 267 269 270 270 272 272 273 276 277 279 279 278 277 278 279 280 280 280 280 279 280 280 280 280 280 276 275 276 278 280
247 249 250 252 254 253 255 258 261 261 262 263 265 267 268 269 269 270 271 272 273 275 277 278 279 279 278 278 279 278 280 280 280 279 278 279 279 279 279 279 277 277 278 279
250 251 253 255 258 257 259 261 263 264 265 265 267 268 269 269 269 270 272 274 274 275 276 277 278 278 278 278 278 278 278 279 278 278 277 278 279 279 278 277 276 276 276 278
Height
5918 5920 5921 5923 5923 5924 5924 5924 5922 5923 5922 5921 5920 5919 5918 5917 5916 5915 5914 5912 5911 5909 5908 5906 5904 5903 5901 5900 5899 5898 5896 5895 5894 5893 5892 5891 5890 5889 5888 5888 5888 5887 5887 5886
5920 5921 5922 5923 5923 5924 5925 5925 5923 5923 5922 5922 5921 5921 5920 5918 5917 5916 5915 5914 5912 5911 5909 5908 5906 5904 5902 5901 5900 5899 5898 5897 5895 5894 5893 5892 5890 5890 5889 5888 5888 5887 5887 5887
5920 5922 5922 5923 5924 5924 5925 5925 5924 5923 5923 5922 5922 5921 5921 5919 5918 5917 5916 5914 5913 5911 5910 5909 5907 5905 5904 5902 5901 5900 5899 5898 5896 5895 5893 5892 5891 5890 5890 5889 5888 5888 5887 5887
5919 5921 5922 5923 5923 5924 5924 5924 5924 5924 5924 5924 5923 5921 5920 5919 5918 5917 5916 5915 5914 5913 5911 5910 5908 5907 5905 5904 5902 5901 5900 5898 5897 5896 5894 5893 5892 5891 5890 5889 5889 5888 5887 5887
5918 5919 5921 5922 5923 5923 5924 5923 5924 5924 5923 5923 5923 5922 5921 5919 5918 5916 5916 5916 5915 5913 5912 5910 5908 5907 5906 5904 5903 5902 5900 5899 5897 5896 5895 5894 5893 5892 5890 5890 5889 5888 5887 5887
5917 5918 5919 5920 5921 5922 5923 5924 5924 5923 5922 5922 5923 5923 5920 5918 5918 5917 5917 5916 5915 5913 5912 5910 5909 5907 5906 5905 5903 5902 5901 5900 5898 5896 5895 5894 5893 5891 5890 5890 5889 5888 5887 5886
5916 5917 5917 5918 5919 5921 5922 5923 5923 5923 5923 5923 5924 5922 5921 5919 5918 5918 5917 5916 5915 5914 5912 5911 5909 5908 5906 5905 5904 5902 5901 5900 5898 5897 5895 5894 5892 5891 5890 5889 5888 5887 5886 5885
5915 5916 5916 5917 5918 5919 5920 5922 5923 5924 5924 5923 5923 5921 5920 5919 5918 5917 5917 5916 5915 5914 5912 5911 5909 5908 5906 5905 5903 5902 5901 5899 5898 5897 5895 5894 5892 5891 5890 5888 5887 5886 5885 5884
5913 5915 5915 5915 5915 5917 5918 5918 5921 5922 5923 5923 5921 5920 5918 5918 5917 5916 5916 5915 5914 5913 5912 5910 5909 5907 5906 5904 5903 5902 5900 5898 5897 5896 5895 5893 5891 5890 5889 5887 5886 5885 5884 5883
5909 5911 5912 5913 5914 5916 5916 5917 5919 5920 5919 5920 5920 5918 5916 5917 5916 5916 5915 5914 5913 5912 5911 5909 5908 5907 5905 5904 5902 5901 5899 5898 5896 5895 5893 5892 5890 5889 5888 5886 5885 5883 5882 5881
5905 5907 5909 5910 5912 5913 5914 5915 5916 5918 5918 5919 5919 5918 5914 5915 5915 5914 5913 5912 5911 5910 5909 5908 5907 5906 5904 5903 5901 5900 5898 5897 5895 5894 5892 5890 5889 5887 5886 5885 5883 5882 5880 5879
5900 5903 5905 5907 5908 5909 5911 5912 5913 5915 5915 5915 5916 5918 5913 5912 5912 5911 5910 5910 5909 5908 5907 5906 5905 5904 5902 5901 5900 5898 5897 5895 5893 5892 5890 5889 5887 5885 5884 5883 5881 5880 5879 5878
5896 5899 5901 5904 5906 5906 5906 5908 5910 5912 5913 5913 5913 5914 5909 5908 5908 5906 5907 5907 5906 5905 5904 5904 5903 5902 5900 5899 5897 5896 5894 5892 5890 5890 5888 5887 5885 5884 5882 5880 5879 5878 5877 5876
5891 5893 5897 5900 5901 5902 5902 5903 5905 5907 5908 5908 5909 5908 5906 5905 5904 5903 5903 5903 5903 5902 5901 5900 5899 5898 5897 5896 5895 5893 5891 5889 5888 5887 5885 5884 5883 5881 5880 5878 5877 5875 5874 5873
5885 5888 5890 5892 5895 5896 5897 5899 5901 5902 5903 5903 5903 5903 5901 5899 5899 5899 5899 5899 5899 5898 5897 5896 5895 5894 5894 5892 5891 5889 5888 5886 5885 5883 5882 5881 5879 5878 5876 5875 5874 5872 5871 5870
5878 5881 5884 5886 5889 5891 5892 5894 5895 5897 5897 5897 5897 5897 5896 5894 5893 5894 5894 5894 5894 5893 5893 5892 5891 5890 5889 5888 5886 5885 5883 5882 5881 5879 5878 5876 5875 5874 5873 5871 5870 5869 5868 5867
5872 5874 5877 5880 5883 5884 5886 5888 5889 5890 5891 5891 5891 5891 5890 5888 5887 5888 5888 5888 5888 5888 5887 5886 5886 5885 5884 5883 5881 5880 5878 5877 5876 5875 5873 5872 5870 5869 5868 5867 5865 5864 5863 5862
5866 5868 5870 5873 5876 5877 5882 5883 5883 5884 5884 5884 5884 5883 5883 5882 5882 5882 5882 5882 5882 5882 5881 5880 5880 5879 5878 5877 5875 5874 5872 5871 5870 5869 5868 5866 5865 5863 5862 5861 5860 5859 5858 5857
5859 5861 5863 5866 5868 5870 5874 5875 5876 5876 5876 5877 5875 5875 5875 5876 5876 5874 5874 5875 5875 5875 5874 5873 5872 5872 5871 5870 5869 5867 5866 5865 5863 5862 5861 5860 5859 5858 5856 5856 5854 5853 5852 5851
5852 5854 5857 5858 5861 5863 5866 5867 5868 5870 5868 5869 5868 5868 5868 5868 5869 5868 5867 5867 5867 5867 5866 5866 5865 5864 5864 5863 5862 5860 5859 5858 5856 5855 5854 5853 5852 5851 5850 5849 5848 5847 5846 5845
5844 5846 5848 5850 5852 5854 5856 5857 5859 5862 5861 5860 5860 5860 5860 5860 5861 5860 5859 5859 5859 5859 5859 5858 5857 5856 5856 5855 5854 5853 5852 5850 5849 5848 5847 5845 5844 5843 5843 5842 5841 5840 5839 5838
5837 5839 5841 5843 5845 5848 5846 5848 5850 5851 5851 5851 5852 5852 5852 5852 5852 5851 5850 5851 5851 5850 5850 5850 5849 5848 5847 5846 5845 5845 5844 5843 5841 5840 5838 5837 5837 5836 5835 5834 5833 5833 5832 5831
5830 5832 5833 5835 5838 5838 5838 5839 5839 5840 5842 5843 5843 5843 5843 5843 5842 5842 5842 5842 5842 5842 5841 5840 5840 5839 5838 5837 5836 5836 5835 5834 5833 5832 5830 5829 5829 5827 5827 5826 5825 5824 5824 5823
5821 5822 5824 5825 5827 5829 5829 5830 5830 5831 5832 5832 5832 5832 5833 5832 5832 5832 5831 5832 5832 5832 5832 5831 5830 5829 5829 5828 5827 5826 5825 5824 5823 5823 5822 5820 5819 5818 5817 5816 5816 5816 5815 5815
5812 5813 5814 5815 5817 5818 5819 5820 5821 5821 5821 5822 5822 5822 5822 5822 5822 5822 5822 5822 5822 5822 5822 5821 5820 5819 5818 5818 5817 5816 5815 5814 5813 5812 5812 5811 5810 5809 5809 5808 5807 5807 5807 5806
5803 5804 5805 5806 5808 5808 5810 5811 5811 5811 5811 5811 5812 5812 5812 5812 5812 5812 5812 5812 5812 5811 5811 5810 5809 5808 5808 5807 5807 5806 5805 5804 5803 5802 5802 5801 5801 5800 5799 5798 5798 5798 5797 5797